owner,sensor,date,latitude,longitude,vertical_datum,wind_speed,wind_to_direction,wind_speed_of_gust,qcFlag 
FIT,ioos:station:wmo:SIPF1:1,2019-06-01T00:00:00Z,27.8620,-80.4450,1.0,7.8,157.0,99.0,'11111222,11111222,11144222' 
FIT,ioos:station:wmo:SIPF1:1,2019-06-01T00:15:00Z,27.8620,-80.4450,1.0,7.8,159.0,99.0,'11111222,11111222,11144222' 
FIT,ioos:station:wmo:SIPF1:1,2019-06-01T00:30:00Z,27.8620,-80.4450,1.0,8.0,157.0,99.0,'11111222,11111222,11144222' 
FIT,ioos:station:wmo:SIPF1:1,2019-06-01T00:45:00Z,27.8620,-80.4450,1.0,7.7,160.0,-9999.0,'11111222,11111222,11111222' 
FIT,ioos:station:wmo:SIPF1:1,2019-06-01T01:00:00Z,27.8620,-80.4450,1.0,7.5,162.0,99.0,'11111222,11111222,11144222' 
FIT,ioos:station:wmo:SIPF1:1,2019-06-01T01:15:00Z,27.8620,-80.4450,1.0,7.5,166.0,99.0,'11111222,11111222,11144222' 
FIT,ioos:station:wmo:SIPF1:1,2019-06-01T01:30:00Z,27.8620,-80.4450,1.0,7.7,171.0,99.0,'11111222,11111222,11144222' 
FIT,ioos:station:wmo:SIPF1:1,2019-06-01T01:45:00Z,27.8620,-80.4450,1.0,7.2,170.0,-9999.0,'11111222,11111222,11111222' 
FIT,ioos:station:wmo:SIPF1:1,2019-06-01T02:00:00Z,27.8620,-80.4450,1.0,6.0,161.0,99.0,'11111222,11111222,11144222' 
FIT,ioos:station:wmo:SIPF1:1,2019-06-01T02:15:00Z,27.8620,-80.4450,1.0,6.4,165.0,99.0,'11111222,11111222,11144222' 
FIT,ioos:station:wmo:SIPF1:1,2019-06-01T02:30:00Z,27.8620,-80.4450,1.0,5.4,169.0,99.0,'11111222,11111222,11144222' 
FIT,ioos:station:wmo:SIPF1:1,2019-06-01T02:45:00Z,27.8620,-80.4450,1.0,5.7,180.0,-9999.0,'11111222,11111222,11111222' 
FIT,ioos:station:wmo:SIPF1:1,2019-06-01T03:00:00Z,27.8620,-80.4450,1.0,6.0,181.0,99.0,'11111222,11111222,11144222' 
FIT,ioos:station:wmo:SIPF1:1,2019-06-01T03:15:00Z,27.8620,-80.4450,1.0,5.7,186.0,99.0,'11111222,11111222,11144222' 
FIT,ioos:station:wmo:SIPF1:1,2019-06-01T03:30:00Z,27.8620,-80.4450,1.0,5.1,184.0,99.0,'11111222,11111222,11144222' 
FIT,ioos:station:wmo:SIPF1:1,2019-06-01T03:45:00Z,27.8620,-80.4450,1.0,6.2,190.0,-9999.0,'11111222,11111222,11111222' 
FIT,ioos:station:wmo:SIPF1:1,2019-06-01T04:00:00Z,27.8620,-80.4450,1.0,5.4,192.0,99.0,'11111222,11111222,11144222' 
FIT,ioos:station:wmo:SIPF1:1,2019-06-01T04:15:00Z,27.8620,-80.4450,1.0,5.2,196.0,99.0,'11111222,11111222,11144222' 
FIT,ioos:station:wmo:SIPF1:1,2019-06-01T04:30:00Z,27.8620,-80.4450,1.0,5.0,199.0,99.0,'11111222,11111222,11144222' 
FIT,ioos:station:wmo:SIPF1:1,2019-06-01T04:45:00Z,27.8620,-80.4450,1.0,4.6,200.0,-9999.0,'11111222,11111222,11111222' 
FIT,ioos:station:wmo:SIPF1:1,2019-06-01T05:00:00Z,27.8620,-80.4450,1.0,5.5,202.0,99.0,'11111222,11111222,11144222' 
FIT,ioos:station:wmo:SIPF1:1,2019-06-01T05:15:00Z,27.8620,-80.4450,1.0,5.1,206.0,99.0,'11111222,11111222,11144222' 
FIT,ioos:station:wmo:SIPF1:1,2019-06-01T05:30:00Z,27.8620,-80.4450,1.0,5.7,204.0,99.0,'11111222,11111222,11144222' 
FIT,ioos:station:wmo:SIPF1:1,2019-06-01T05:45:00Z,27.8620,-80.4450,1.0,6.2,200.0,-9999.0,'11111222,11111222,11111222' 
FIT,ioos:station:wmo:SIPF1:1,2019-06-01T06:00:00Z,27.8620,-80.4450,1.0,5.9,196.0,99.0,'11111222,11111222,11144222' 
FIT,ioos:station:wmo:SIPF1:1,2019-06-01T06:15:00Z,27.8620,-80.4450,1.0,5.1,199.0,99.0,'11111222,11111222,11144222' 
FIT,ioos:station:wmo:SIPF1:1,2019-06-01T06:30:00Z,27.8620,-80.4450,1.0,4.7,201.0,99.0,'11111222,11111222,11144222' 
FIT,ioos:station:wmo:SIPF1:1,2019-06-01T06:45:00Z,27.8620,-80.4450,1.0,5.1,210.0,-9999.0,'11111222,11111222,11111222' 
FIT,ioos:station:wmo:SIPF1:1,2019-06-01T07:00:00Z,27.8620,-80.4450,1.0,4.8,205.0,99.0,'11111222,11111222,11144222' 
FIT,ioos:station:wmo:SIPF1:1,2019-06-01T07:15:00Z,27.8620,-80.4450,1.0,4.9,206.0,99.0,'11111222,11111222,11144222' 
FIT,ioos:station:wmo:SIPF1:1,2019-06-01T07:30:00Z,27.8620,-80.4450,1.0,4.7,211.0,99.0,'11111222,11111222,11144222' 
FIT,ioos:station:wmo:SIPF1:1,2019-06-01T07:45:00Z,27.8620,-80.4450,1.0,5.7,220.0,-9999.0,'11111222,11111222,11111222' 
FIT,ioos:station:wmo:SIPF1:1,2019-06-01T08:00:00Z,27.8620,-80.4450,1.0,5.1,223.0,99.0,'11111222,11111222,11144222' 
FIT,ioos:station:wmo:SIPF1:1,2019-06-01T08:15:00Z,27.8620,-80.4450,1.0,4.6,213.0,99.0,'11111222,11111222,11144222' 
FIT,ioos:station:wmo:SIPF1:1,2019-06-01T08:30:00Z,27.8620,-80.4450,1.0,4.6,223.0,99.0,'11111222,11111222,11144222' 
FIT,ioos:station:wmo:SIPF1:1,2019-06-01T08:45:00Z,27.8620,-80.4450,1.0,4.6,220.0,-9999.0,'11111222,11111222,11111222' 
FIT,ioos:station:wmo:SIPF1:1,2019-06-01T09:00:00Z,27.8620,-80.4450,1.0,4.9,232.0,99.0,'11111222,11111222,11144222' 
FIT,ioos:station:wmo:SIPF1:1,2019-06-01T09:15:00Z,27.8620,-80.4450,1.0,4.7,225.0,99.0,'11111222,11111222,11144222' 
FIT,ioos:station:wmo:SIPF1:1,2019-06-01T09:30:00Z,27.8620,-80.4450,1.0,4.3,224.0,99.0,'11111222,11111222,11144222' 
FIT,ioos:station:wmo:SIPF1:1,2019-06-01T09:45:00Z,27.8620,-80.4450,1.0,4.1,210.0,-9999.0,'11111222,11111222,11111222' 
FIT,ioos:station:wmo:SIPF1:1,2019-06-01T10:00:00Z,27.8620,-80.4450,1.0,4.0,224.0,99.0,'11111222,11111222,11144222' 
FIT,ioos:station:wmo:SIPF1:1,2019-06-01T10:15:00Z,27.8620,-80.4450,1.0,4.0,226.0,99.0,'11111222,11111222,11144222' 
FIT,ioos:station:wmo:SIPF1:1,2019-06-01T10:30:00Z,27.8620,-80.4450,1.0,4.0,225.0,99.0,'11111222,11111222,11144222' 
FIT,ioos:station:wmo:SIPF1:1,2019-06-01T10:45:00Z,27.8620,-80.4450,1.0,4.1,220.0,-9999.0,'11111222,11111222,11111222' 
FIT,ioos:station:wmo:SIPF1:1,2019-06-01T11:00:00Z,27.8620,-80.4450,1.0,4.0,228.0,99.0,'11111222,11111222,11144222' 
FIT,ioos:station:wmo:SIPF1:1,2019-06-01T11:15:00Z,27.8620,-80.4450,1.0,3.4,228.0,99.0,'11111222,11111222,11144222' 
FIT,ioos:station:wmo:SIPF1:1,2019-06-01T11:30:00Z,27.8620,-80.4450,1.0,3.4,233.0,99.0,'11111222,11111222,11144222' 
FIT,ioos:station:wmo:SIPF1:1,2019-06-01T11:45:00Z,27.8620,-80.4450,1.0,3.6,240.0,-9999.0,'11111222,11111222,11111222' 
FIT,ioos:station:wmo:SIPF1:1,2019-06-01T12:00:00Z,27.8620,-80.4450,1.0,3.4,233.0,99.0,'11111222,11111222,11144222' 
FIT,ioos:station:wmo:SIPF1:1,2019-06-01T12:15:00Z,27.8620,-80.4450,1.0,3.8,237.0,99.0,'11111222,11111222,11144222' 
FIT,ioos:station:wmo:SIPF1:1,2019-06-01T12:30:00Z,27.8620,-80.4450,1.0,3.6,230.0,-9999.0,'11111222,11111222,11111222' 
FIT,ioos:station:wmo:SIPF1:1,2019-06-01T12:45:00Z,27.8620,-80.4450,1.0,3.4,238.0,99.0,'11111222,11111222,11144222' 
FIT,ioos:station:wmo:SIPF1:1,2019-06-01T13:00:00Z,27.8620,-80.4450,1.0,3.1,238.0,99.0,'11111222,11111222,11144222' 
FIT,ioos:station:wmo:SIPF1:1,2019-06-01T13:15:00Z,27.8620,-80.4450,1.0,2.8,237.0,99.0,'11111222,11111222,11144222' 
FIT,ioos:station:wmo:SIPF1:1,2019-06-01T13:30:00Z,27.8620,-80.4450,1.0,3.1,236.0,99.0,'11111222,11111222,11144222' 
FIT,ioos:station:wmo:SIPF1:1,2019-06-01T13:45:00Z,27.8620,-80.4450,1.0,3.1,240.0,-9999.0,'11111222,11111222,11111222' 
FIT,ioos:station:wmo:SIPF1:1,2019-06-01T14:00:00Z,27.8620,-80.4450,1.0,2.9,255.0,99.0,'11111222,11111222,11144222' 
FIT,ioos:station:wmo:SIPF1:1,2019-06-01T14:15:00Z,27.8620,-80.4450,1.0,2.8,255.0,99.0,'11111222,11111222,11144222' 
FIT,ioos:station:wmo:SIPF1:1,2019-06-01T14:30:00Z,27.8620,-80.4450,1.0,2.6,267.0,99.0,'11111222,11111222,11144222' 
FIT,ioos:station:wmo:SIPF1:1,2019-06-01T14:45:00Z,27.8620,-80.4450,1.0,2.6,320.0,-9999.0,'11111222,11111222,11111222' 
FIT,ioos:station:wmo:SIPF1:1,2019-06-01T15:00:00Z,27.8620,-80.4450,1.0,3.3,45.0,99.0,'11111222,11111222,11144222' 
FIT,ioos:station:wmo:SIPF1:1,2019-06-01T15:15:00Z,27.8620,-80.4450,1.0,3.2,56.0,99.0,'11111222,11111222,11144222' 
FIT,ioos:station:wmo:SIPF1:1,2019-06-01T15:30:00Z,27.8620,-80.4450,1.0,3.0,73.0,99.0,'11111222,11111222,11144222' 
FIT,ioos:station:wmo:SIPF1:1,2019-06-01T15:45:00Z,27.8620,-80.4450,1.0,3.6,70.0,-9999.0,'11111222,11111222,11111222' 
FIT,ioos:station:wmo:SIPF1:1,2019-06-01T16:00:00Z,27.8620,-80.4450,1.0,3.8,79.0,99.0,'11111222,11111222,11144222' 
FIT,ioos:station:wmo:SIPF1:1,2019-06-01T16:15:00Z,27.8620,-80.4450,1.0,4.1,79.0,99.0,'11111222,11111222,11144222' 
FIT,ioos:station:wmo:SIPF1:1,2019-06-01T16:30:00Z,27.8620,-80.4450,1.0,3.9,92.0,99.0,'11111222,11111222,11144222' 
FIT,ioos:station:wmo:SIPF1:1,2019-06-01T16:45:00Z,27.8620,-80.4450,1.0,4.6,90.0,-9999.0,'11111222,11111222,11111222' 
FIT,ioos:station:wmo:SIPF1:1,2019-06-01T17:00:00Z,27.8620,-80.4450,1.0,5.3,116.0,99.0,'11111222,11111222,11144222' 
FIT,ioos:station:wmo:SIPF1:1,2019-06-01T17:15:00Z,27.8620,-80.4450,1.0,5.6,121.0,99.0,'11111222,11111222,11144222' 
FIT,ioos:station:wmo:SIPF1:1,2019-06-01T17:30:00Z,27.8620,-80.4450,1.0,5.6,125.0,99.0,'11111222,11111222,11144222' 
FIT,ioos:station:wmo:SIPF1:1,2019-06-01T17:45:00Z,27.8620,-80.4450,1.0,5.1,120.0,-9999.0,'11111222,11111222,11111222' 
FIT,ioos:station:wmo:SIPF1:1,2019-06-01T18:00:00Z,27.8620,-80.4450,1.0,5.0,117.0,99.0,'11111222,11111222,11144222' 
FIT,ioos:station:wmo:SIPF1:1,2019-06-01T18:15:00Z,27.8620,-80.4450,1.0,4.5,123.0,99.0,'11111222,11111222,11144222' 
FIT,ioos:station:wmo:SIPF1:1,2019-06-01T18:30:00Z,27.8620,-80.4450,1.0,4.7,129.0,99.0,'11111222,11111222,11144222' 
FIT,ioos:station:wmo:SIPF1:1,2019-06-01T18:45:00Z,27.8620,-80.4450,1.0,5.1,140.0,-9999.0,'11111222,11111222,11111222' 
FIT,ioos:station:wmo:SIPF1:1,2019-06-01T19:00:00Z,27.8620,-80.4450,1.0,5.9,143.0,99.0,'11111222,11111222,11144222' 
FIT,ioos:station:wmo:SIPF1:1,2019-06-01T19:15:00Z,27.8620,-80.4450,1.0,6.9,146.0,99.0,'11111222,11111222,11144222' 
FIT,ioos:station:wmo:SIPF1:1,2019-06-01T19:30:00Z,27.8620,-80.4450,1.0,8.1,146.0,99.0,'11111222,11111222,11144222' 
FIT,ioos:station:wmo:SIPF1:1,2019-06-01T19:45:00Z,27.8620,-80.4450,1.0,8.8,160.0,-9999.0,'11111222,11111222,11111222' 
FIT,ioos:station:wmo:SIPF1:1,2019-06-01T20:00:00Z,27.8620,-80.4450,1.0,8.8,185.0,99.0,'11111222,11111222,11144222' 
FIT,ioos:station:wmo:SIPF1:1,2019-06-01T20:15:00Z,27.8620,-80.4450,1.0,7.6,192.0,99.0,'11111222,11111222,11144222' 
FIT,ioos:station:wmo:SIPF1:1,2019-06-01T20:30:00Z,27.8620,-80.4450,1.0,6.5,195.0,99.0,'11111222,11111222,11144222' 
FIT,ioos:station:wmo:SIPF1:1,2019-06-01T20:45:00Z,27.8620,-80.4450,1.0,5.7,190.0,-9999.0,'11111222,11111222,11111222' 
FIT,ioos:station:wmo:SIPF1:1,2019-06-01T21:00:00Z,27.8620,-80.4450,1.0,4.9,204.0,99.0,'11111222,11111222,11144222' 
FIT,ioos:station:wmo:SIPF1:1,2019-06-01T21:15:00Z,27.8620,-80.4450,1.0,5.1,191.0,99.0,'11111222,11111222,11144222' 
FIT,ioos:station:wmo:SIPF1:1,2019-06-01T21:30:00Z,27.8620,-80.4450,1.0,5.6,209.0,99.0,'11111222,11111222,11144222' 
FIT,ioos:station:wmo:SIPF1:1,2019-06-01T21:45:00Z,27.8620,-80.4450,1.0,5.7,230.0,-9999.0,'11111222,11111222,11111222' 
FIT,ioos:station:wmo:SIPF1:1,2019-06-01T22:00:00Z,27.8620,-80.4450,1.0,7.5,205.0,99.0,'11111222,11111222,11144222' 
FIT,ioos:station:wmo:SIPF1:1,2019-06-01T22:15:00Z,27.8620,-80.4450,1.0,5.6,204.0,99.0,'11111222,11111222,11144222' 
FIT,ioos:station:wmo:SIPF1:1,2019-06-01T22:30:00Z,27.8620,-80.4450,1.0,3.8,198.0,99.0,'11111222,11111222,11144222' 
FIT,ioos:station:wmo:SIPF1:1,2019-06-01T22:45:00Z,27.8620,-80.4450,1.0,4.1,220.0,-9999.0,'11111222,11111222,11111222' 
FIT,ioos:station:wmo:SIPF1:1,2019-06-01T23:00:00Z,27.8620,-80.4450,1.0,3.4,231.0,99.0,'11111222,11111222,11144222' 
FIT,ioos:station:wmo:SIPF1:1,2019-06-01T23:15:00Z,27.8620,-80.4450,1.0,3.8,249.0,99.0,'11111222,11111222,11144222' 
FIT,ioos:station:wmo:SIPF1:1,2019-06-01T23:30:00Z,27.8620,-80.4450,1.0,5.5,322.0,99.0,'11111222,11111222,11144222' 
FIT,ioos:station:wmo:SIPF1:1,2019-06-01T23:45:00Z,27.8620,-80.4450,1.0,6.2,320.0,-9999.0,'11111222,11111222,11111222' 
FIT,ioos:station:wmo:SIPF1:1,2019-06-02T00:00:00Z,27.8620,-80.4450,1.0,5.6,324.0,99.0,'11111222,11111222,11144222' 
FIT,ioos:station:wmo:SIPF1:1,2019-06-02T00:15:00Z,27.8620,-80.4450,1.0,6.6,338.0,99.0,'11111222,11111222,11144222' 
FIT,ioos:station:wmo:SIPF1:1,2019-06-02T00:30:00Z,27.8620,-80.4450,1.0,3.8,310.0,99.0,'11111222,11111222,11144222' 
FIT,ioos:station:wmo:SIPF1:1,2019-06-02T00:45:00Z,27.8620,-80.4450,1.0,3.6,270.0,-9999.0,'11111222,11111222,11111222' 
FIT,ioos:station:wmo:SIPF1:1,2019-06-02T01:00:00Z,27.8620,-80.4450,1.0,3.4,279.0,99.0,'11111222,11111222,11144222' 
FIT,ioos:station:wmo:SIPF1:1,2019-06-02T01:15:00Z,27.8620,-80.4450,1.0,2.2,276.0,99.0,'11111222,11111222,11144222' 
FIT,ioos:station:wmo:SIPF1:1,2019-06-02T01:30:00Z,27.8620,-80.4450,1.0,1.7,264.0,99.0,'11111222,11111222,11144222' 
FIT,ioos:station:wmo:SIPF1:1,2019-06-02T01:45:00Z,27.8620,-80.4450,1.0,3.1,240.0,-9999.0,'11111222,11111222,11111222' 
FIT,ioos:station:wmo:SIPF1:1,2019-06-02T02:00:00Z,27.8620,-80.4450,1.0,4.1,228.0,99.0,'11111222,11111222,11144222' 
FIT,ioos:station:wmo:SIPF1:1,2019-06-02T02:15:00Z,27.8620,-80.4450,1.0,4.3,226.0,99.0,'11111222,11111222,11144222' 
FIT,ioos:station:wmo:SIPF1:1,2019-06-02T02:30:00Z,27.8620,-80.4450,1.0,4.6,229.0,99.0,'11111222,11111222,11144222' 
FIT,ioos:station:wmo:SIPF1:1,2019-06-02T02:45:00Z,27.8620,-80.4450,1.0,5.1,240.0,-9999.0,'11111222,11111222,11111222' 
FIT,ioos:station:wmo:SIPF1:1,2019-06-02T03:00:00Z,27.8620,-80.4450,1.0,3.6,243.0,99.0,'11111222,11111222,11144222' 
FIT,ioos:station:wmo:SIPF1:1,2019-06-02T03:15:00Z,27.8620,-80.4450,1.0,2.5,232.0,99.0,'11111222,11111222,11144222' 
FIT,ioos:station:wmo:SIPF1:1,2019-06-02T03:30:00Z,27.8620,-80.4450,1.0,4.6,250.0,-9999.0,'11111222,11111222,11111222' 
FIT,ioos:station:wmo:SIPF1:1,2019-06-02T03:45:00Z,27.8620,-80.4450,1.0,4.1,248.0,99.0,'11111222,11111222,11144222' 
FIT,ioos:station:wmo:SIPF1:1,2019-06-02T04:00:00Z,27.8620,-80.4450,1.0,4.0,242.0,99.0,'11111222,11111222,11144222' 
FIT,ioos:station:wmo:SIPF1:1,2019-06-02T04:15:00Z,27.8620,-80.4450,1.0,4.5,208.0,99.0,'11111222,11111222,11144222' 
FIT,ioos:station:wmo:SIPF1:1,2019-06-02T04:30:00Z,27.8620,-80.4450,1.0,3.9,214.0,99.0,'11111222,11111222,11144222' 
FIT,ioos:station:wmo:SIPF1:1,2019-06-02T04:45:00Z,27.8620,-80.4450,1.0,4.1,220.0,-9999.0,'11111222,11111222,11111222' 
FIT,ioos:station:wmo:SIPF1:1,2019-06-02T05:00:00Z,27.8620,-80.4450,1.0,3.9,236.0,99.0,'11111222,11111222,11144222' 
FIT,ioos:station:wmo:SIPF1:1,2019-06-02T05:15:00Z,27.8620,-80.4450,1.0,4.2,241.0,99.0,'11111222,11111222,11144222' 
FIT,ioos:station:wmo:SIPF1:1,2019-06-02T05:30:00Z,27.8620,-80.4450,1.0,3.7,240.0,99.0,'11111222,11111222,11144222' 
FIT,ioos:station:wmo:SIPF1:1,2019-06-02T05:45:00Z,27.8620,-80.4450,1.0,3.1,240.0,-9999.0,'11111222,11111222,11111222' 
FIT,ioos:station:wmo:SIPF1:1,2019-06-02T06:00:00Z,27.8620,-80.4450,1.0,3.1,230.0,99.0,'11111222,11111222,11144222' 
FIT,ioos:station:wmo:SIPF1:1,2019-06-02T06:15:00Z,27.8620,-80.4450,1.0,3.0,231.0,99.0,'11111222,11111222,11144222' 
FIT,ioos:station:wmo:SIPF1:1,2019-06-02T06:30:00Z,27.8620,-80.4450,1.0,2.3,209.0,99.0,'11111222,11111222,11144222' 
FIT,ioos:station:wmo:SIPF1:1,2019-06-02T06:45:00Z,27.8620,-80.4450,1.0,2.1,210.0,-9999.0,'11111222,11111222,11111222' 
FIT,ioos:station:wmo:SIPF1:1,2019-06-02T07:00:00Z,27.8620,-80.4450,1.0,2.1,208.0,99.0,'11111222,11111222,11144222' 
FIT,ioos:station:wmo:SIPF1:1,2019-06-02T07:15:00Z,27.8620,-80.4450,1.0,2.3,210.0,99.0,'11111222,11111222,11144222' 
FIT,ioos:station:wmo:SIPF1:1,2019-06-02T07:30:00Z,27.8620,-80.4450,1.0,2.7,220.0,99.0,'11111222,11111222,11144222' 
FIT,ioos:station:wmo:SIPF1:1,2019-06-02T07:45:00Z,27.8620,-80.4450,1.0,2.1,210.0,-9999.0,'11111222,11111222,11111222' 
FIT,ioos:station:wmo:SIPF1:1,2019-06-02T08:00:00Z,27.8620,-80.4450,1.0,2.1,214.0,99.0,'11111222,11111222,11144222' 
FIT,ioos:station:wmo:SIPF1:1,2019-06-02T08:15:00Z,27.8620,-80.4450,1.0,1.9,206.0,99.0,'11111222,11111222,11144222' 
FIT,ioos:station:wmo:SIPF1:1,2019-06-02T08:30:00Z,27.8620,-80.4450,1.0,2.2,222.0,99.0,'11111222,11111222,11144222' 
FIT,ioos:station:wmo:SIPF1:1,2019-06-02T08:45:00Z,27.8620,-80.4450,1.0,2.6,230.0,-9999.0,'11111222,11111222,11111222' 
FIT,ioos:station:wmo:SIPF1:1,2019-06-02T09:00:00Z,27.8620,-80.4450,1.0,1.6,232.0,99.0,'11111222,11111222,11144222' 
FIT,ioos:station:wmo:SIPF1:1,2019-06-02T09:15:00Z,27.8620,-80.4450,1.0,1.6,250.0,99.0,'11111222,11111222,11144222' 
FIT,ioos:station:wmo:SIPF1:1,2019-06-02T09:30:00Z,27.8620,-80.4450,1.0,1.5,221.0,99.0,'11111222,11111222,11144222' 
FIT,ioos:station:wmo:SIPF1:1,2019-06-02T09:45:00Z,27.8620,-80.4450,1.0,1.5,220.0,-9999.0,'11111222,11111222,11111222' 
FIT,ioos:station:wmo:SIPF1:1,2019-06-02T10:00:00Z,27.8620,-80.4450,1.0,1.2,224.0,99.0,'11111222,11111222,11144222' 
FIT,ioos:station:wmo:SIPF1:1,2019-06-02T10:15:00Z,27.8620,-80.4450,1.0,1.5,230.0,99.0,'11111222,11111222,11144222' 
FIT,ioos:station:wmo:SIPF1:1,2019-06-02T10:30:00Z,27.8620,-80.4450,1.0,2.1,223.0,99.0,'11111222,11111222,11144222' 
FIT,ioos:station:wmo:SIPF1:1,2019-06-02T10:45:00Z,27.8620,-80.4450,1.0,2.1,220.0,-9999.0,'11111222,11111222,11111222' 
FIT,ioos:station:wmo:SIPF1:1,2019-06-02T11:00:00Z,27.8620,-80.4450,1.0,2.3,231.0,99.0,'11111222,11111222,11144222' 
FIT,ioos:station:wmo:SIPF1:1,2019-06-02T11:15:00Z,27.8620,-80.4450,1.0,2.1,232.0,99.0,'11111222,11111222,11144222' 
FIT,ioos:station:wmo:SIPF1:1,2019-06-02T11:30:00Z,27.8620,-80.4450,1.0,2.2,240.0,99.0,'11111222,11111222,11144222' 
FIT,ioos:station:wmo:SIPF1:1,2019-06-02T11:45:00Z,27.8620,-80.4450,1.0,2.6,240.0,-9999.0,'11111222,11111222,11111222' 
FIT,ioos:station:wmo:SIPF1:1,2019-06-02T12:00:00Z,27.8620,-80.4450,1.0,2.2,239.0,99.0,'11111222,11111222,11144222' 
FIT,ioos:station:wmo:SIPF1:1,2019-06-02T12:15:00Z,27.8620,-80.4450,1.0,2.4,244.0,99.0,'11111222,11111222,11144222' 
FIT,ioos:station:wmo:SIPF1:1,2019-06-02T12:30:00Z,27.8620,-80.4450,1.0,2.6,240.0,-9999.0,'11111222,11111222,11111222' 
FIT,ioos:station:wmo:SIPF1:1,2019-06-02T12:45:00Z,27.8620,-80.4450,1.0,2.7,239.0,99.0,'11111222,11111222,11144222' 
FIT,ioos:station:wmo:SIPF1:1,2019-06-02T13:00:00Z,27.8620,-80.4450,1.0,3.0,240.0,99.0,'11111222,11111222,11144222' 
FIT,ioos:station:wmo:SIPF1:1,2019-06-02T13:15:00Z,27.8620,-80.4450,1.0,3.4,237.0,99.0,'11111222,11111222,11144222' 
FIT,ioos:station:wmo:SIPF1:1,2019-06-02T13:30:00Z,27.8620,-80.4450,1.0,2.8,242.0,99.0,'11111222,11111222,11144222' 
FIT,ioos:station:wmo:SIPF1:1,2019-06-02T13:45:00Z,27.8620,-80.4450,1.0,3.1,240.0,-9999.0,'11111222,11111222,11111222' 
FIT,ioos:station:wmo:SIPF1:1,2019-06-02T14:00:00Z,27.8620,-80.4450,1.0,2.5,246.0,99.0,'11111222,11111222,11144222' 
FIT,ioos:station:wmo:SIPF1:1,2019-06-02T14:15:00Z,27.8620,-80.4450,1.0,2.1,239.0,99.0,'11111222,11111222,11144222' 
FIT,ioos:station:wmo:SIPF1:1,2019-06-02T14:30:00Z,27.8620,-80.4450,1.0,1.4,290.0,99.0,'11111222,11111222,11144222' 
FIT,ioos:station:wmo:SIPF1:1,2019-06-02T14:45:00Z,27.8620,-80.4450,1.0,1.5,320.0,-9999.0,'11111222,11111222,11111222' 
FIT,ioos:station:wmo:SIPF1:1,2019-06-02T15:00:00Z,27.8620,-80.4450,1.0,1.4,67.0,99.0,'11111222,11111222,11144222' 
FIT,ioos:station:wmo:SIPF1:1,2019-06-02T15:15:00Z,27.8620,-80.4450,1.0,1.6,58.0,99.0,'11111222,11111222,11144222' 
FIT,ioos:station:wmo:SIPF1:1,2019-06-02T15:30:00Z,27.8620,-80.4450,1.0,2.1,77.0,99.0,'11111222,11111222,11144222' 
FIT,ioos:station:wmo:SIPF1:1,2019-06-02T15:45:00Z,27.8620,-80.4450,1.0,2.6,90.0,-9999.0,'11111222,11111222,11111222' 
FIT,ioos:station:wmo:SIPF1:1,2019-06-02T16:00:00Z,27.8620,-80.4450,1.0,2.4,89.0,99.0,'11111222,11111222,11144222' 
FIT,ioos:station:wmo:SIPF1:1,2019-06-02T16:15:00Z,27.8620,-80.4450,1.0,2.5,92.0,99.0,'11111222,11111222,11144222' 
FIT,ioos:station:wmo:SIPF1:1,2019-06-02T16:30:00Z,27.8620,-80.4450,1.0,2.2,93.0,99.0,'11111222,11111222,11144222' 
FIT,ioos:station:wmo:SIPF1:1,2019-06-02T16:45:00Z,27.8620,-80.4450,1.0,2.1,90.0,-9999.0,'11111222,11111222,11111222' 
FIT,ioos:station:wmo:SIPF1:1,2019-06-02T17:00:00Z,27.8620,-80.4450,1.0,2.4,94.0,99.0,'11111222,11111222,11144222' 
FIT,ioos:station:wmo:SIPF1:1,2019-06-02T17:15:00Z,27.8620,-80.4450,1.0,2.2,117.0,99.0,'11111222,11111222,11144222' 
FIT,ioos:station:wmo:SIPF1:1,2019-06-02T17:30:00Z,27.8620,-80.4450,1.0,3.3,123.0,99.0,'11111222,11111222,11144222' 
FIT,ioos:station:wmo:SIPF1:1,2019-06-02T17:45:00Z,27.8620,-80.4450,1.0,3.6,130.0,-9999.0,'11111222,11111222,11111222' 
FIT,ioos:station:wmo:SIPF1:1,2019-06-02T18:00:00Z,27.8620,-80.4450,1.0,3.9,126.0,99.0,'11111222,11111222,11144222' 
FIT,ioos:station:wmo:SIPF1:1,2019-06-02T18:15:00Z,27.8620,-80.4450,1.0,3.7,129.0,99.0,'11111222,11111222,11144222' 
FIT,ioos:station:wmo:SIPF1:1,2019-06-02T18:30:00Z,27.8620,-80.4450,1.0,3.7,124.0,99.0,'11111222,11111222,11144222' 
FIT,ioos:station:wmo:SIPF1:1,2019-06-02T18:45:00Z,27.8620,-80.4450,1.0,3.6,130.0,-9999.0,'11111222,11111222,11111222' 
FIT,ioos:station:wmo:SIPF1:1,2019-06-02T19:00:00Z,27.8620,-80.4450,1.0,3.6,116.0,99.0,'11111222,11111222,11144222' 
FIT,ioos:station:wmo:SIPF1:1,2019-06-02T19:15:00Z,27.8620,-80.4450,1.0,3.4,112.0,99.0,'11111222,11111222,11144222' 
FIT,ioos:station:wmo:SIPF1:1,2019-06-02T19:30:00Z,27.8620,-80.4450,1.0,4.0,116.0,99.0,'11111222,11111222,11144222' 
FIT,ioos:station:wmo:SIPF1:1,2019-06-02T19:45:00Z,27.8620,-80.4450,1.0,5.1,110.0,-9999.0,'11111222,11111222,11111222' 
FIT,ioos:station:wmo:SIPF1:1,2019-06-02T20:00:00Z,27.8620,-80.4450,1.0,5.1,123.0,99.0,'11111222,11111222,11144222' 
FIT,ioos:station:wmo:SIPF1:1,2019-06-02T20:15:00Z,27.8620,-80.4450,1.0,5.1,126.0,99.0,'11111222,11111222,11144222' 
FIT,ioos:station:wmo:SIPF1:1,2019-06-02T20:30:00Z,27.8620,-80.4450,1.0,4.5,141.0,99.0,'11111222,11111222,11144222' 
FIT,ioos:station:wmo:SIPF1:1,2019-06-02T20:45:00Z,27.8620,-80.4450,1.0,9.8,150.0,-9999.0,'11111222,11111222,11111222' 
FIT,ioos:station:wmo:SIPF1:1,2019-06-02T21:00:00Z,27.8620,-80.4450,1.0,6.9,136.0,99.0,'11111222,11111222,11144222' 
FIT,ioos:station:wmo:SIPF1:1,2019-06-02T21:15:00Z,27.8620,-80.4450,1.0,8.4,158.0,99.0,'11111222,11111222,11144222' 
FIT,ioos:station:wmo:SIPF1:1,2019-06-02T21:30:00Z,27.8620,-80.4450,1.0,6.0,174.0,99.0,'11111222,11111222,11144222' 
FIT,ioos:station:wmo:SIPF1:1,2019-06-02T21:45:00Z,27.8620,-80.4450,1.0,5.7,160.0,-9999.0,'11111222,11111222,11111222' 
FIT,ioos:station:wmo:SIPF1:1,2019-06-02T22:00:00Z,27.8620,-80.4450,1.0,5.0,143.0,99.0,'11111222,11111222,11144222' 
FIT,ioos:station:wmo:SIPF1:1,2019-06-02T22:15:00Z,27.8620,-80.4450,1.0,4.8,139.0,99.0,'11111222,11111222,11144222' 
FIT,ioos:station:wmo:SIPF1:1,2019-06-02T22:30:00Z,27.8620,-80.4450,1.0,5.1,124.0,99.0,'11111222,11111222,11144222' 
FIT,ioos:station:wmo:SIPF1:1,2019-06-02T22:45:00Z,27.8620,-80.4450,1.0,4.6,140.0,-9999.0,'11111222,11111222,11111222' 
FIT,ioos:station:wmo:SIPF1:1,2019-06-02T23:00:00Z,27.8620,-80.4450,1.0,4.9,150.0,99.0,'11111222,11111222,11144222' 
FIT,ioos:station:wmo:SIPF1:1,2019-06-02T23:15:00Z,27.8620,-80.4450,1.0,5.2,148.0,99.0,'11111222,11111222,11144222' 
FIT,ioos:station:wmo:SIPF1:1,2019-06-02T23:30:00Z,27.8620,-80.4450,1.0,4.7,151.0,99.0,'11111222,11111222,11144222' 
FIT,ioos:station:wmo:SIPF1:1,2019-06-02T23:45:00Z,27.8620,-80.4450,1.0,5.7,150.0,-9999.0,'11111222,11111222,11111222' 
FIT,ioos:station:wmo:SIPF1:1,2019-06-03T00:00:00Z,27.8620,-80.4450,1.0,6.2,152.0,99.0,'11111222,11111222,11144222' 
FIT,ioos:station:wmo:SIPF1:1,2019-06-03T00:15:00Z,27.8620,-80.4450,1.0,6.1,153.0,99.0,'11111222,11111222,11144222' 
FIT,ioos:station:wmo:SIPF1:1,2019-06-03T00:30:00Z,27.8620,-80.4450,1.0,6.6,157.0,99.0,'11111222,11111222,11144222' 
FIT,ioos:station:wmo:SIPF1:1,2019-06-03T00:45:00Z,27.8620,-80.4450,1.0,6.2,170.0,-9999.0,'11111222,11111222,11111222' 
FIT,ioos:station:wmo:SIPF1:1,2019-06-03T01:00:00Z,27.8620,-80.4450,1.0,6.6,171.0,99.0,'11111222,11111222,11144222' 
FIT,ioos:station:wmo:SIPF1:1,2019-06-03T01:15:00Z,27.8620,-80.4450,1.0,5.5,168.0,99.0,'11111222,11111222,11144222' 
FIT,ioos:station:wmo:SIPF1:1,2019-06-03T01:30:00Z,27.8620,-80.4450,1.0,5.3,170.0,99.0,'11111222,11111222,11144222' 
FIT,ioos:station:wmo:SIPF1:1,2019-06-03T01:45:00Z,27.8620,-80.4450,1.0,5.7,170.0,-9999.0,'11111222,11111222,11111222' 
FIT,ioos:station:wmo:SIPF1:1,2019-06-03T02:00:00Z,27.8620,-80.4450,1.0,5.6,171.0,99.0,'11111222,11111222,11144222' 
FIT,ioos:station:wmo:SIPF1:1,2019-06-03T02:15:00Z,27.8620,-80.4450,1.0,5.1,172.0,99.0,'11111222,11111222,11144222' 
FIT,ioos:station:wmo:SIPF1:1,2019-06-03T02:30:00Z,27.8620,-80.4450,1.0,4.4,185.0,99.0,'11111222,11111222,11144222' 
FIT,ioos:station:wmo:SIPF1:1,2019-06-03T02:45:00Z,27.8620,-80.4450,1.0,4.6,190.0,-9999.0,'11111222,11111222,11111222' 